TimeCDT,TemperatureF,Dew PointF,Humidity,Sea Level PressureIn,VisibilityMPH,Wind Direction,Wind SpeedMPH,Gust SpeedMPH,PrecipitationIn,Events,Conditions,WindDirDegrees,DateUTC
12:53 AM,80.1,55.0,42,29.84,10.0,SSE,20.7,-,N/A,,Clear,150,2013-07-06 05:53:00
1:53 AM,79.0,55.0,44,29.83,10.0,SSE,21.9,29.9,N/A,,Clear,160,2013-07-06 06:53:00
2:53 AM,78.1,54.0,43,29.83,10.0,South,19.6,26.5,N/A,,Clear,170,2013-07-06 07:53:00
3:53 AM,75.9,55.0,48,29.84,10.0,South,19.6,27.6,N/A,,Clear,170,2013-07-06 08:53:00
4:53 AM,75.0,55.0,50,29.83,10.0,South,18.4,-,N/A,,Clear,170,2013-07-06 09:53:00
5:53 AM,75.9,55.0,48,29.84,10.0,South,19.6,-,N/A,,Clear,180,2013-07-06 10:53:00
6:53 AM,75.0,55.9,51,29.85,10.0,South,19.6,-,N/A,,Mostly Cloudy,180,2013-07-06 11:53:00
7:53 AM,75.9,55.9,50,29.85,10.0,South,19.6,26.5,N/A,,Clear,180,2013-07-06 12:53:00
8:53 AM,79.0,55.9,45,29.86,10.0,South,21.9,-,N/A,,Clear,190,2013-07-06 13:53:00
9:53 AM,81.0,55.9,42,29.87,10.0,SSW,18.4,28.8,0.00,Rain,Light Rain,210,2013-07-06 14:53:00
10:53 AM,82.9,55.9,39,29.86,10.0,SSW,18.4,26.5,0.00,,Partly Cloudy,200,2013-07-06 15:53:00
11:53 AM,87.1,55.9,35,29.86,10.0,SSW,24.2,31.1,N/A,,Clear,210,2013-07-06 16:53:00
12:53 PM,91.0,55.0,29,29.86,10.0,SSW,20.7,27.6,N/A,,Partly Cloudy,200,2013-07-06 17:53:00
1:53 PM,91.9,51.1,25,29.84,10.0,South,20.7,29.9,N/A,,Clear,190,2013-07-06 18:53:00
2:53 PM,93.9,51.1,23,29.84,10.0,South,18.4,28.8,N/A,,Clear,190,2013-07-06 19:53:00
3:53 PM,97.0,50.0,20,29.82,10.0,South,17.3,26.5,N/A,,Clear,170,2013-07-06 20:53:00
4:53 PM,97.0,51.1,21,29.81,10.0,SSE,23.0,28.8,N/A,,Clear,160,2013-07-06 21:53:00
5:53 PM,96.1,50.0,21,29.79,10.0,South,23.0,29.9,N/A,,Clear,180,2013-07-06 22:53:00
6:53 PM,95.0,48.9,21,29.78,10.0,South,18.4,23.0,N/A,,Clear,190,2013-07-06 23:53:00
7:53 PM,93.0,48.9,22,29.80,10.0,South,19.6,-,N/A,,Clear,170,2013-07-07 00:53:00
8:53 PM,89.1,52.0,28,29.82,10.0,SSE,17.3,-,N/A,,Clear,150,2013-07-07 01:53:00
9:53 PM,86.0,52.0,31,29.85,10.0,SE,13.8,-,N/A,,Clear,140,2013-07-07 02:53:00
10:53 PM,84.0,57.0,40,29.87,10.0,SE,16.1,-,N/A,,Clear,140,2013-07-07 03:53:00
11:53 PM,82.0,57.0,42,29.88,10.0,SSE,16.1,-,N/A,,Clear,150,2013-07-07 04:53:00